Date String (YYYY-MM-DD hh:mm:ss) UTC,Instrument flags,Ambient pressure (hPa),Sample flow (lpm),Bypass flow (lpm),Sample temperature (°C),Ambient temperature (°C),ASC tube jacket temperature (°C),LED temperature (°C),Box temperature (°C),Sample RH (%),Span deviation,Mass concentration (μg/m³),Mass concentration (μg/m³),Mass concentration (μg/m³)
DateTimeUTC,F1_M11,P_M11,Q1_M11,Q2_M11,T1_M11,T2_M11,T3_M11,T4_M11,T5_M11,U1_M11,ZSPAN_M11,X2_M11,X0_M11,X1_M11
2022-03-20 09:00:00,,0820.6,4.99,0.00,25.0,24.0,00.0,34.0,26.8,07.9,0000.0,0004.51,0011.12,0002.81
2022-03-20 09:01:00,,0820.6,5.00,0.00,25.0,24.0,00.0,34.0,26.8,07.9,0000.0,0004.52,0010.79,0002.80
2022-03-20 09:02:00,,0820.8,5.01,0.00,25.0,24.0,00.0,34.0,26.8,08.1,0000.0,0004.50,0010.93,0002.82
2022-03-20 09:03:00,,0820.9,5.00,0.00,25.0,24.0,00.0,34.0,26.7,08.7,0000.0,0004.44,0010.93,0002.81
2022-03-20 09:04:00,,0820.9,5.00,0.00,25.0,24.0,00.0,34.0,26.7,08.4,0000.0,0004.47,0011.27,0002.80
2022-03-20 09:05:00,,0820.8,5.00,0.00,25.0,24.0,00.0,34.0,26.7,08.4,0000.0,0004.47,0011.38,0002.82
2022-03-20 09:06:00,,0820.8,5.00,0.00,24.9,23.9,00.0,34.0,26.6,08.0,0000.0,0004.43,0011.24,0002.83
2022-03-20 09:07:00,,0820.8,5.00,0.00,24.9,23.9,00.0,34.0,26.6,07.8,0000.0,0004.44,0011.15,0002.83
2022-03-20 09:08:00,,0820.7,5.00,0.00,24.9,23.9,00.0,34.0,26.6,07.8,0000.0,0004.48,0011.24,0002.82
2022-03-20 09:09:00,,0820.7,5.01,0.00,24.9,23.9,00.0,34.0,26.6,07.8,0000.0,0004.51,0010.75,0002.81
2022-03-20 09:10:00,,0820.7,4.99,0.00,24.9,23.9,00.0,34.0,26.6,07.7,0000.0,0004.50,0010.83,0002.79
2022-03-20 09:11:00,,0820.7,5.00,0.00,24.9,23.8,00.0,33.9,26.6,07.6,0000.0,0004.49,0011.04,0002.78
2022-03-20 09:12:00,,0820.7,5.00,0.00,24.8,23.8,00.0,33.9,26.5,07.7,0000.0,0004.46,0011.32,0002.77
2022-03-20 09:13:00,,0820.7,5.00,0.00,24.8,23.7,00.0,33.9,26.5,07.6,0000.0,0004.46,0011.14,0002.76
2022-03-20 09:14:00,,0820.7,5.01,0.00,24.7,23.6,00.0,33.9,26.4,07.5,0000.0,0004.45,0010.86,0002.77
2022-03-20 09:15:00,,0820.6,4.99,0.00,24.7,23.6,00.0,33.9,26.4,07.4,0000.0,0004.42,0010.59,0002.79
2022-03-20 09:16:00,,0820.6,5.00,0.00,24.7,23.6,00.0,33.8,26.4,07.5,0000.0,0004.47,0010.53,0002.80
2022-03-20 09:17:00,,0820.6,5.01,0.00,24.7,23.6,00.0,33.8,26.4,07.5,0000.0,0004.48,0010.69,0002.80
2022-03-20 09:18:00,,0820.7,4.99,0.00,24.7,23.7,00.0,33.8,26.4,07.6,0000.0,0004.40,0010.70,0002.79
2022-03-20 09:19:00,,0820.7,5.00,0.00,24.7,23.7,00.0,33.8,26.4,07.5,0000.0,0004.40,0010.91,0002.80
2022-03-20 09:20:00,,0820.7,5.01,0.00,24.7,23.6,00.0,33.8,26.4,07.5,0000.0,0004.38,0010.76,0002.80
2022-03-20 09:21:00,,0820.7,5.00,0.00,24.6,23.6,00.0,33.8,26.3,07.5,0000.0,0004.43,0010.76,0002.81
2022-03-20 09:22:00,,0820.6,4.99,0.00,24.6,23.5,00.0,33.8,26.3,07.5,0000.0,0004.45,0011.25,0002.82
2022-03-20 09:23:00,,0820.6,5.00,0.00,24.5,23.5,00.0,33.7,26.2,07.5,0000.0,0004.51,0011.10,0002.82
2022-03-20 09:24:00,,0820.6,5.00,0.00,24.5,23.4,00.0,33.7,26.2,07.5,0000.0,0004.55,0011.25,0002.81
2022-03-20 09:25:00,,0820.5,5.00,0.00,24.5,23.4,00.0,33.7,26.1,07.6,0000.0,0004.61,0011.43,0002.79
2022-03-20 09:26:00,,0820.5,4.99,0.00,24.4,23.4,00.0,33.6,26.1,07.7,0000.0,0004.63,0011.51,0002.78
2022-03-20 09:27:00,,0820.6,5.01,0.00,24.4,23.4,00.0,33.6,26.2,07.7,0000.0,0004.60,0011.52,0002.76
2022-03-20 09:28:00,,0820.5,5.00,0.00,24.4,23.4,00.0,33.6,26.1,07.8,0000.0,0004.60,0011.64,0002.74
2022-03-20 09:29:00,,0820.5,4.99,0.00,24.4,23.5,00.0,33.6,26.1,08.2,0000.0,0004.64,0011.60,0002.73
2022-03-20 09:30:00,,0820.4,4.99,0.00,24.4,23.5,00.0,33.6,26.1,08.2,0000.0,0004.63,0011.45,0002.69
2022-03-20 09:31:00,,0820.4,5.00,0.00,24.4,23.5,00.0,33.6,26.2,08.1,0000.0,0004.66,0011.51,0002.68
2022-03-20 09:32:00,,0820.3,5.00,0.00,24.4,23.5,00.0,33.6,26.2,07.9,0000.0,0004.61,0011.27,0002.68
2022-03-20 09:33:00,,0820.4,5.01,0.00,24.4,23.5,00.0,33.5,26.2,08.0,0000.0,0004.59,0010.69,0002.66
2022-03-20 09:34:00,,0820.4,4.99,0.00,24.4,23.5,00.0,33.5,26.2,08.0,0000.0,0004.50,0010.19,0002.63
2022-03-20 09:35:00,,0820.4,5.01,0.00,24.4,23.5,00.0,33.5,26.1,08.0,0000.0,0004.41,0010.09,0002.63
2022-03-20 09:36:00,,0820.3,4.98,0.00,24.4,23.5,00.0,33.5,26.1,08.0,0000.0,0004.37,0010.20,0002.64
2022-03-20 09:37:00,,0820.4,5.02,0.00,24.4,23.4,00.0,33.5,26.1,07.8,0000.0,0004.39,0010.22,0002.66
2022-03-20 09:38:00,,0820.4,5.00,0.00,24.4,23.4,00.0,33.5,26.0,07.8,0000.0,0004.40,0010.28,0002.64
2022-03-20 09:39:00,,0820.3,5.00,0.00,24.3,23.3,00.0,33.5,26.0,07.7,0000.0,0004.39,0010.19,0002.63
2022-03-20 09:40:00,,0820.3,5.01,0.00,24.3,23.3,00.0,33.5,26.0,07.7,0000.0,0004.38,0010.38,0002.65
2022-03-20 09:41:00,,0820.3,4.99,0.00,24.3,23.3,00.0,33.4,26.0,07.7,0000.0,0004.39,0010.51,0002.67
2022-03-20 09:42:00,,0820.3,4.99,0.00,24.3,23.3,00.0,33.4,26.0,07.7,0000.0,0004.36,0010.42,0002.68
2022-03-20 09:43:00,,0820.2,5.01,0.00,24.3,23.3,00.0,33.4,26.0,07.8,0000.0,0004.35,0010.78,0002.66
2022-03-20 09:44:00,,0820.3,4.98,0.00,24.3,23.3,00.0,33.4,26.0,07.9,0000.0,0004.30,0010.79,0002.65
2022-03-20 09:45:00,,0820.2,5.00,0.00,24.3,23.3,00.0,33.4,26.0,07.9,0000.0,0004.37,0010.93,0002.65
2022-03-20 09:46:00,,0820.2,4.99,0.00,24.3,23.3,00.0,33.4,26.0,08.1,0000.0,0004.41,0010.95,0002.64
2022-03-20 09:47:00,,0820.2,5.01,0.00,24.3,23.3,00.0,33.4,26.0,08.2,0000.0,0004.44,0011.04,0002.62
2022-03-20 09:48:00,,0820.3,4.99,0.00,24.3,23.2,00.0,33.4,26.0,08.3,0000.0,0004.49,0011.16,0002.61
2022-03-20 09:49:00,,0820.3,5.01,0.00,24.2,23.2,00.0,33.4,25.9,08.3,0000.0,0004.45,0011.11,0002.64
2022-03-20 09:50:00,,0820.3,5.01,0.00,24.2,23.2,00.0,33.3,25.9,08.2,0000.0,0004.47,0010.99,0002.67
2022-03-20 09:51:00,,0820.3,4.99,0.00,24.2,23.2,00.0,33.3,25.9,08.3,0000.0,0004.48,0010.74,0002.68
2022-03-20 09:52:00,,0820.2,4.99,0.00,24.2,23.2,00.0,33.3,25.9,08.3,0000.0,0004.50,0010.53,0002.71
2022-03-20 09:53:00,,0820.2,5.00,0.00,24.2,23.2,00.0,33.3,25.9,08.3,0000.0,0004.55,0010.82,0002.73
2022-03-20 09:54:00,,0820.2,4.99,0.00,24.2,23.2,00.0,33.3,25.9,08.3,0000.0,0004.55,0010.52,0002.74
2022-03-20 09:55:00,,0820.2,4.99,0.00,24.2,23.2,00.0,33.3,25.9,08.4,0000.0,0004.60,0010.56,0002.78
2022-03-20 09:56:00,,0820.1,5.01,0.00,24.2,23.2,00.0,33.3,25.9,08.4,0000.0,0004.61,0010.63,0002.80
2022-03-20 09:57:00,,0820.0,4.99,0.00,24.2,23.2,00.0,33.3,25.9,08.4,0000.0,0004.62,0010.66,0002.82
2022-03-20 09:58:00,,0819.9,4.99,0.00,24.2,23.2,00.0,33.3,26.0,08.3,0000.0,0004.68,0010.47,0002.83
2022-03-20 09:59:00,,0819.9,4.99,0.00,24.2,23.3,00.0,33.3,26.0,08.3,0000.0,0004.68,0010.93,0002.84
